Simultaneous Nadir Overpasses (SNOs) Predictions

Prediction of SNOs between METOP-B and TERRA Satellite Orbit:

Table of predicted SNOs for the next 14.0 days since TLE Epoch: 1/4/2013
Index Date (METOP-B) Time (METOP-B) Lat,Lon (METOP-B) SZA (METOP-B ) Date (TERRA) Time (TERRA) Lat,Lon (TERRA) SZA (TERRA ) Distance(km) Time Diff (sec)
1 01/04/2013 20:15:26 81.27, -77.56 106.30 01/04/2013 20:16:34 81.27, -77.37 106.35 3.34 68
2 01/04/2013 21:06:06 -81.27, 90.25 73.65 01/04/2013 21:06:01 -81.27, 90.18 73.67 1.21 5
3 01/07/2013 15:49:51 81.27, -11.15 105.93 01/07/2013 15:50:51 81.27, -11.04 105.97 1.88 60
4 01/07/2013 16:40:31 -81.27, 156.63 74.03 01/07/2013 16:40:18 -81.27, 156.54 74.05 1.82 13
5 01/10/2013 11:24:15 81.26, 55.16 105.49 01/10/2013 11:25:07 81.26, 55.21 105.51 1.07 52
6 01/10/2013 12:14:54 -81.28,-136.70 74.43 01/10/2013 12:14:33 -81.28,-136.81 74.45 1.95 21
7 01/13/2013 06:58:39 81.27, 121.77 105.04 01/13/2013 06:59:23 81.27, 121.76 105.05 0.40 44
8 01/13/2013 07:49:18 -81.28, -70.12 74.89 01/13/2013 07:48:49 -81.29, -70.24 74.91 2.10 29
9 01/16/2013 02:33:03 81.27,-171.71 104.51 01/16/2013 02:33:39 81.27,-171.77 104.52 0.93 36




NCC Satellite Simultaneous Nadir Overpasses (SNOs) Prediction Service
